TimeEDT,TemperatureF,Dew PointF,Humidity,Sea Level PressureIn,VisibilityMPH,Wind Direction,Wind SpeedMPH,Gust SpeedMPH,PrecipitationIn,Events,Conditions,WindDirDegrees,DateUTC
12:15 AM,53.6,51.8,94,30.04,10.0,Calm,Calm,-,0.01,,Overcast,0,2012-10-05 04:15:00
12:35 AM,53.6,51.8,94,30.03,10.0,Calm,Calm,-,0.02,,Overcast,0,2012-10-05 04:35:00
12:55 AM,53.6,51.8,94,30.02,10.0,East,3.5,-,0.02,,Overcast,100,2012-10-05 04:55:00
1:15 AM,53.6,51.8,94,30.03,10.0,East,3.5,-,N/A,,Overcast,90,2012-10-05 05:15:00
1:35 AM,53.6,51.8,94,30.02,6.0,Calm,Calm,-,N/A,,Overcast,0,2012-10-05 05:35:00
1:55 AM,53.6,53.6,100,30.02,6.0,Calm,Calm,-,0.01,,Overcast,0,2012-10-05 05:55:00
2:15 AM,53.6,53.6,100,30.02,3.0,Calm,Calm,-,N/A,,Overcast,0,2012-10-05 06:15:00
2:35 AM,53.6,53.6,100,30.01,3.0,Calm,Calm,-,N/A,,Overcast,0,2012-10-05 06:35:00
2:55 AM,53.6,53.6,100,30.01,3.0,Calm,Calm,-,N/A,,Overcast,0,2012-10-05 06:55:00
3:15 AM,53.6,53.6,100,30.00,5.0,ESE,3.5,-,N/A,,Overcast,120,2012-10-05 07:15:00
3:35 AM,53.6,53.6,100,30.00,5.0,Calm,Calm,-,0.01,,Overcast,0,2012-10-05 07:35:00
3:55 AM,53.6,53.6,100,30.01,9.0,Calm,Calm,-,0.01,,Overcast,0,2012-10-05 07:55:00
4:15 AM,53.6,53.6,100,30.01,10.0,Calm,Calm,-,N/A,,Overcast,0,2012-10-05 08:15:00
4:35 AM,53.6,53.6,100,30.00,10.0,SE,3.5,-,N/A,,Overcast,140,2012-10-05 08:35:00
4:55 AM,53.6,51.8,94,30.00,10.0,Calm,Calm,-,N/A,,Overcast,0,2012-10-05 08:55:00
5:15 AM,53.6,53.6,100,30.00,10.0,Calm,Calm,-,N/A,,Overcast,0,2012-10-05 09:15:00
5:35 AM,53.6,53.6,100,29.99,8.0,Calm,Calm,-,N/A,,Overcast,0,2012-10-05 09:35:00
5:55 AM,53.6,51.8,94,29.99,3.0,Calm,Calm,-,N/A,,Overcast,0,2012-10-05 09:55:00
6:15 AM,53.6,51.8,94,30.00,2.0,Calm,Calm,-,N/A,,Overcast,0,2012-10-05 10:15:00
6:35 AM,53.6,53.6,100,30.00,1.2,Calm,Calm,-,N/A,,Overcast,0,2012-10-05 10:35:00
6:55 AM,53.6,53.6,100,30.00,0.8,Calm,Calm,-,N/A,,Overcast,0,2012-10-05 10:55:00
7:15 AM,53.6,53.6,100,30.00,0.8,Calm,Calm,-,N/A,,Overcast,0,2012-10-05 11:15:00
7:35 AM,53.6,53.6,100,30.01,1.0,Calm,Calm,-,N/A,,Overcast,0,2012-10-05 11:35:00
7:55 AM,53.6,53.6,100,30.00,1.0,Calm,Calm,-,N/A,,Overcast,0,2012-10-05 11:55:00
8:15 AM,55.4,55.4,100,30.00,1.2,SSW,3.5,-,N/A,,Overcast,210,2012-10-05 12:15:00
8:35 AM,55.4,55.4,100,29.99,2.5,SSW,3.5,-,N/A,,Overcast,210,2012-10-05 12:35:00
8:55 AM,55.4,53.6,94,29.99,2.0,SSW,4.6,-,N/A,,Overcast,210,2012-10-05 12:55:00
9:15 AM,55.4,55.4,100,29.99,9.0,Calm,Calm,-,N/A,,Overcast,0,2012-10-05 13:15:00
9:35 AM,55.4,55.4,100,29.98,10.0,SSW,3.5,-,N/A,,Overcast,210,2012-10-05 13:35:00
9:55 AM,57.2,55.4,94,29.98,10.0,South,4.6,-,N/A,,Overcast,190,2012-10-05 13:55:00
10:15 AM,57.2,57.2,100,29.98,10.0,SSW,5.8,-,N/A,,Overcast,200,2012-10-05 14:15:00
10:35 AM,57.2,57.2,100,29.98,10.0,SSW,4.6,-,N/A,,Overcast,200,2012-10-05 14:35:00
10:55 AM,57.2,55.4,94,29.97,10.0,SW,4.6,-,N/A,,Overcast,220,2012-10-05 14:55:00
11:15 AM,57.2,57.2,100,29.97,10.0,South,5.8,-,N/A,,Overcast,190,2012-10-05 15:15:00
11:35 AM,57.2,57.2,100,29.96,10.0,SSW,6.9,-,N/A,,Overcast,200,2012-10-05 15:35:00
11:55 AM,59.0,57.2,94,29.96,10.0,SSW,6.9,-,N/A,,Overcast,210,2012-10-05 15:55:00
12:15 PM,59.0,57.2,94,29.96,10.0,SSW,5.8,-,N/A,,Overcast,210,2012-10-05 16:15:00
12:35 PM,59.0,57.2,94,29.96,10.0,SSW,6.9,-,N/A,,Overcast,200,2012-10-05 16:35:00
12:55 PM,59.0,57.2,94,29.95,10.0,SSW,9.2,-,N/A,,Overcast,200,2012-10-05 16:55:00
1:15 PM,59.0,57.2,94,29.96,10.0,SSW,5.8,-,N/A,,Overcast,210,2012-10-05 17:15:00
1:35 PM,59.0,57.2,94,29.95,10.0,SW,4.6,-,N/A,,Overcast,230,2012-10-05 17:35:00
1:55 PM,60.8,57.2,88,29.95,10.0,SW,5.8,-,N/A,,Overcast,220,2012-10-05 17:55:00
2:35 PM,60.8,57.2,88,29.94,10.0,South,9.2,-,N/A,,Overcast,180,2012-10-05 18:35:00
2:55 PM,60.8,59.0,94,29.93,10.0,SSW,8.1,-,N/A,,Overcast,200,2012-10-05 18:55:00
3:15 PM,60.8,57.2,88,29.94,10.0,South,9.2,-,N/A,,Overcast,190,2012-10-05 19:15:00
3:35 PM,60.8,57.2,88,29.93,10.0,South,9.2,-,N/A,,Overcast,190,2012-10-05 19:35:00
3:55 PM,60.8,57.2,88,29.93,10.0,South,10.4,-,N/A,,Overcast,190,2012-10-05 19:55:00
4:15 PM,60.8,57.2,88,29.92,10.0,South,10.4,-,N/A,,Scattered Clouds,190,2012-10-05 20:15:00
4:35 PM,60.8,57.2,88,29.91,10.0,South,6.9,-,N/A,,Partly Cloudy,190,2012-10-05 20:35:00
4:55 PM,60.8,57.2,88,29.91,10.0,South,10.4,-,N/A,,Scattered Clouds,180,2012-10-05 20:55:00
5:15 PM,60.8,57.2,88,29.92,10.0,South,6.9,-,N/A,,Overcast,190,2012-10-05 21:15:00
5:35 PM,59.0,57.2,94,29.92,10.0,SSW,6.9,-,N/A,,Overcast,210,2012-10-05 21:35:00
5:55 PM,57.2,57.2,100,29.92,10.0,South,9.2,-,N/A,,Overcast,190,2012-10-05 21:55:00
6:15 PM,57.2,57.2,100,29.93,9.0,South,10.4,-,N/A,,Overcast,190,2012-10-05 22:15:00
6:35 PM,57.2,57.2,100,29.94,10.0,South,10.4,-,N/A,,Overcast,190,2012-10-05 22:35:00
6:55 PM,57.2,57.2,100,29.93,10.0,South,9.2,-,N/A,,Overcast,180,2012-10-05 22:55:00
7:15 PM,57.2,57.2,100,29.93,10.0,South,10.4,-,N/A,,Overcast,180,2012-10-05 23:15:00
7:35 PM,57.2,57.2,100,29.93,9.0,South,6.9,-,N/A,,Overcast,190,2012-10-05 23:35:00
7:55 PM,57.2,57.2,100,29.93,8.0,South,9.2,-,N/A,,Overcast,170,2012-10-05 23:55:00
8:15 PM,57.2,57.2,100,29.94,8.0,South,9.2,-,N/A,,Overcast,190,2012-10-06 00:15:00
8:35 PM,57.2,57.2,100,29.94,7.0,South,9.2,-,N/A,,Overcast,190,2012-10-06 00:35:00
8:55 PM,57.2,57.2,100,29.94,8.0,South,11.5,-,N/A,,Overcast,180,2012-10-06 00:55:00
9:15 PM,57.2,57.2,100,29.94,8.0,South,9.2,-,N/A,,Overcast,190,2012-10-06 01:15:00
9:35 PM,57.2,57.2,100,29.94,3.0,SSW,11.5,-,N/A,,Overcast,200,2012-10-06 01:35:00
9:55 PM,55.4,55.4,100,29.94,4.0,SSW,6.9,-,N/A,,Overcast,210,2012-10-06 01:55:00
10:15 PM,55.4,55.4,100,29.93,2.0,South,9.2,-,N/A,,Overcast,190,2012-10-06 02:15:00
10:35 PM,55.4,55.4,100,29.93,3.0,South,13.8,-,N/A,,Overcast,180,2012-10-06 02:35:00
10:55 PM,57.2,57.2,100,29.92,1.2,South,8.1,-,N/A,,Overcast,180,2012-10-06 02:55:00
11:35 PM,57.2,57.2,100,29.91,0.5,South,9.2,-,N/A,,Overcast,190,2012-10-06 03:35:00
11:55 PM,57.2,57.2,100,29.91,0.8,South,12.7,-,N/A,,Overcast,190,2012-10-06 03:55:00